Regional Weather Roundup
Issued by NWS

Home | Current Version | Previous Version | Graphics & Text | Print | Product List | Glossary On
Versions: 1 2 3 4 5 6 7 8 9 10 11 12 13 14 15 16 17 18 19 20 21 22 23 24 25 26 27
000
ASUS45 KBOU 230007
RWRCO

WEATHER ROUNDUP FOR COLORADO
NATIONAL WEATHER SERVICE DENVER/BOULDER CO
600 PM MDT FRI JUL 22 2016

NOTE: "FAIR" INDICATES FEW OR NO CLOUDS BELOW 12000 FEET WITH NO
SIGNIFICANT WEATHER AND/OR OBSTRUCTIONS TO VISIBILITY.

COZ001>005-013-030-031-230100-
...NORTHWEST COLORADO...

CITY           SKY/WX    TMP DP  RH WIND       PRES   REMARKS
CRAIG          FAIR      83  45  26 SW18G26   30.23S
HAYDEN         FAIR      82  43  24 SW20G25   30.25F
MEEKER         FAIR      80  47  31 SE9       30.27F
MOUNT WERNER   NOT AVBL
STEAMBOAT SPGS FAIR      81  47  31 S7        30.27F
WALDEN         FAIR      77  37  24 S7        30.38F
$$

COZ006>008-011-230100-
...WEST CENTRAL VALLEYS...

CITY           SKY/WX    TMP DP  RH WIND       PRES   REMARKS
GRAND JUNCTION FAIR      94  45  18 SE13      30.11F
MONTROSE       FAIR      83  49  30 E16G25    30.26F
EAGLE          PTSUNNY   84  43  23 NW12      30.29F
RIFLE          TSTM      76  50  40 W9        30.24F
DELTA          FAIR      89  49  24 NE10      30.21R
NUCLA          FAIR      88  46  23 SE10      30.28F
$$

COZ017>023-064>068-230100-
...SOUTHWEST COLORADO...

CITY           SKY/WX    TMP DP  RH WIND       PRES   REMARKS
DURANGO        FAIR      87  46  24 NW13      30.27F
CORTEZ         FAIR      87  50  27 MISG      30.22F
PAGOSA SPRINGS PTSUNNY   83  38  19 W12       30.36S
TELLURIDE      CLOUDY    67  49  51 W8G16     30.57R
WOLF CREEK PAS PTSUNNY   61  39  44 S14G22    30.75F
$$

COZ009-010-012-014-032>034-037-058>063-230100-
...CENTRAL COLORADO...

CITY           SKY/WX    TMP DP  RH WIND       PRES   REMARKS
ASPEN          FAIR      70  47  43 SE12G20   30.41F
BUENA VISTA    FAIR      71  44  38 W15       30.43F
COPPER MTN     CLOUDY    59  37  44 S16       30.74F
BERTHOUD PASS  PTSUNNY   54  41  62 NW10G20   30.77F
COTTONWOOD PAS CLOUDY    64  41  42 SW21G29   30.58F
GUNNISON       PTSUNNY   66  48  52 NE9       30.46F
KREMMLING      PTSUNNY   73  50  43 SW14G21   30.37R
LEADVILLE      LGT RAIN  54  47  77 SE9       30.58F
SALIDA         FAIR      78  45  30 N12G21    30.45F
SUNLIGHT       FAIR      64  45  48 W3        30.69S
WILKERSON PASS FAIR      57  37  47 W12G25    30.70F
$$

COZ069>075-230100-
...SAN LUIS VALLEY/SANGRE DE CRISTO MOUNTAINS...

CITY           SKY/WX    TMP DP  RH WIND       PRES   REMARKS
ALAMOSA        FAIR      82  47  29 N17G25    30.32F
LA VETA PASS   FAIR      68  34  28 CALM      30.56F THUNDER
SAGUACHE       FAIR      73  46  38 N14G22    30.40F
$$

COZ035-036-038>040-230100-
...NORTHERN COLORADO FRONT RANGE...

CITY           SKY/WX    TMP DP  RH WIND       PRES   REMARKS
DENVER INTL AP PTSUNNY   92  48  22 S8        30.10F
DMNS CITY PARK   N/A     88  49  26 S12       30.10F
AURORA         PTSUNNY   89  50  26 S16       30.14F
FRONT RANGE AP PTSUNNY   93  46  20 S6        30.13F
ERIE MUNI ARPT FAIR      95  38  13 SE5       30.07F
BOULDER MUN AP FAIR      91  45  19 NE3       30.08F
CENTENNIAL     PTSUNNY   84  50  30 S13       30.16F
BROOMFIELD     PTSUNNY   93  45  18 S8        30.17R
LONGMONT       FAIR      97  44  16 CALM      30.09S
$$

COZ041-046-047-076>085-087-088-230100-
...PIKES PEAK/PALMER DIVIDE AND SOUTHERN FOOTHILLS...

CITY           SKY/WX    TMP DP  RH WIND       PRES   REMARKS
COLO. SPRINGS  PTSUNNY   85  53  33 NE14      30.21F
A. F. ACADEMY  MOSUNNY   82  50  32 NE12      30.23F
SCHRIEVER AFB  NOT AVBL
ELLICOTT       FAIR       1   1 100 N16G24    30.18F THUNDER WCI -19
FALCON         FAIR      80  50  35 NE16      30.29F
FORT CARSON    MOSUNNY   86  52  30 N8        30.16F
LIMON          FAIR      89  49  25 S6        30.11S
MONUMENT HILL  PTSUNNY   70  55  60 S8        30.30F
TRINIDAD       NOT AVBL
$$

COZ042>045-048>051-090-091-230100-
...NORTHEAST COLORADO...

CITY           SKY/WX    TMP DP  RH WIND       PRES   REMARKS
GREELEY ARPT   FAIR      93  54  26 NE7       30.06F
AKRON          FAIR      89  58  34 E7        30.05F
BURLINGTON     FAIR      98  51  20 SE16      30.01F
WRAY           NOT AVBL
STERLING       FAIR      95  63  34 SE6       29.98F
HOLYOKE        FAIR      95  64  36 W15G22    30.01R
FORT MORGAN    FAIR      96  45  17 CALM      30.04F
$$

COZ086-089-092>099-230100-
...SOUTHEAST COLORADO...

CITY           SKY/WX    TMP DP  RH WIND       PRES   REMARKS
PUEBLO         LGT RAIN  86  59  39 E9        30.07S
LA JUNTA       FAIR     100  47  16 S18G28    30.00S
LAMAR          FAIR     101  52  19 S17G25    29.93F
SPRINGFIELD      N/A     92  54  27 S20G28    30.04F
$$




USA.gov is the U.S. government's official web portal to all federal, state and local government web resources and services.